Current Version              Previous Version:    01  02  03  04  05  06  07  08  09  10  11  12  13  14  15  16  17  18  19  20  21  22  23  24  25  26  27  28  29  30  
   31  32  33  34  35  36  37  38  39  40  41  42  43  44  45  46  47  48  49  50  51  52  53  54  55  56  57  58  59  60  

[Printable]
202
ASUS44 KLUB 191210
RWRTX
WEST TEXAS WEATHER ROUNDUP
NATIONAL WEATHER SERVICE LUBBOCK TX
700 AM CDT SAT APR 19 2014

NOTE: "FAIR" INDICATES FEW OR NO CLOUDS BELOW 12,000 FEET WITH NO
SIGNIFICANT WEATHER AND/OR OBSTRUCTIONS TO VISIBILITY.

TXZ004-006>008-010-012-014-016-OKZ002-191300-
TEXAS PANHANDLE/OKLAHOMA PANHANDLE

CITY           SKY/WX    TMP DP  RH WIND       PRES   REMARKS
AMARILLO       CLOUDY    50  42  74 S15       30.10S
BORGER         CLEAR     53  42  66 S16G22    30.06S
CANADIAN       PTCLDY    55  49  80 S16       30.07S
DALHART        CLOUDY    54  43  66 S17       30.04S
DUMAS          PTCLDY    51  42  70 S15       30.06S
GUYMON         CLEAR     52  43  71 S18       29.99S
HEREFORD       CLOUDY    51  41  70 SW6       30.11R
PAMPA          CLEAR     49  43  80 S15       30.08F
PERRYTON       PTCLDY    53  46  77 S18       30.05S
$$

TXZ026-029-035-045-048-191300-
SOUTHERN PANHANDLE/SOUTH PLAINS/ROLLING PLAINS

CITY           SKY/WX    TMP DP  RH WIND       PRES   REMARKS
CHILDRESS      CLEAR     50  46  86 S9        30.11R
SEMINOLE       CLOUDY    52  42  69 NE3       30.11R
LUBBOCK        MOCLDY    52  44  74 S8        30.10R
PLAINVIEW      MOCLDY    49  44  81 S3        30.09S
SNYDER         MOCLDY    55  50  85 SE6       30.11S
$$

TXZ052-054-060>062-072-078-127-140-154-169-191300-
PERMIAN BASIN/CONCHO VALLEY/BIG COUNTRY/EDWARDS PLATEAU

CITY           SKY/WX    TMP DP  RH WIND       PRES   REMARKS
ABILENE        PTCLDY    57  49  74 SE12      30.11R
BIG SPRING     MOCLDY    60  48  65 SE12      30.12R
BRADY          CLEAR     54  52  94 SE3       30.13R
BROWNWOOD      PTCLDY    50  48  93 CALM      30.14R
JUNCTION       CLEAR     57  53  86 VRB3      30.13R
MIDLAND        CLOUDY    58  48  69 E10       30.07S
ODESSA         CLOUDY    59  48  67 SE8       30.08R
SAN ANGELO     PTCLDY    58  51  78 S8        30.10R
SONORA         MOCLDY    61  55  82 S8        30.12R
SWEETWATER     PTCLDY    57  51  80 SE13      30.14R
WINK           MOCLDY    62  50  64 SE17      30.01F
$$

TXZ055-058-074-075-080-082-191300-
FAR WEST/SOUTHWEST MOUNTAINS/TRANS PECOS

CITY           SKY/WX    TMP DP  RH WIND       PRES   REMARKS
ALPINE         CLOUDY    58  48  68 CALM      30.15R
DRYDEN           N/A     63  56  78 E8        30.05R
EL PASO        LGT RAIN  63  49  60 E5        30.00R
FORT STOCKTON  CLOUDY    61  51  70 S17       30.05R
GUADALUPE PASS FOG       50  50 100 NE18      30.09S VSB 1/4
MARFA          CLOUDY    54  45  71 E5        30.12S
PECOS          CLOUDY    60  50  69 E6        30.02R
PRESIDIO       FAIR      66  49  55 NE10      30.00R
$$

TXZ014-016-019-021>030-083-191300
TEXAS TECH WEST TEXAS MESONET/TEXAS PANHANDLE/NORTHERN SOUTH PLAINS

CITY           SKY/WX    TMP DP  RH WIND       PRES   REMARKS
ABERNATHY 5ENE   N/A     47  42  82 S6        30.11S
AMARILLO 9NNE    N/A     52  42  69 S16       30.07R
AMARILLO 7SSE    N/A     47  41  81 S6        30.11S
AMHERST 1NE      N/A     49  40  72 SE3       30.10S
BOOTLEG 11WNW    N/A     47  41  77 S8        30.12S
CANADIAN 6E      N/A     52  47  81 S17       30.07S
CAPROCK CYN SP   N/A     50  45  85 S5        30.11S
CHILDRESS 2NNE   N/A     50  47  87 S10       30.10R
CLARENDON 2WSW   N/A     45  41  86 SW1       30.11S
CLAUDE 12SW      N/A     50  42  74 S7        30.11R
DIMMITT 2NE      N/A     48  40  76 S9        30.10S
FLOYDADA 2NNE    N/A     51  45  79 S9        30.11R
FRIONA 2NE       N/A     50  42  72 S5        30.11S
GOODLETT 3W      N/A     50  46  86 S5        30.10R
HART 3N          N/A     49  42  77 S6        30.10S
HEREFORD 2NW     N/A     51  41  69 S7        30.10R
MCLEAN 1E        N/A     47  45  92 SW6       30.10F
MEMPHIS 1NE      N/A     43  40  89 NW1       30.11R
MULESHOE 2SSW    N/A     49  42  76 E3        30.09F
OLTON 6S         N/A     49  41  73 S7        30.10S
PALO DURO SP     N/A     49  41  73 S5        30.12S
PAMPA 2E         N/A     49  44  84 S15       30.08F
PLAINVIEW 1S     N/A     49  43  80 S6        30.10S
SILVERTON 7ESE   N/A     50  44  80 S8        30.11R
TULIA 2ENE       N/A     47  41  82 S3        30.11R
TURKEY 2WSW      N/A     48  44  86 CALM      30.10R
UMBARGER 3NNE    N/A     49  40  73 S9        30.10S
$$

TXZ033>036-039>041-045>048-191300
TEXAS TECH WEST TEXAS MESONET/SOUTH PLAINS

CITY           SKY/WX    TMP DP  RH WIND       PRES   REMARKS
AIKEN 3WSW       N/A     45  41  86 S5        30.12R
ANDREWS 2NE      N/A     55  43  65 E7        30.08F
ANTON 6SSW       N/A     48  40  73 SE2       30.11S
BROWNFIELD 2S    N/A     48  41  77 SE3       30.11R
DENVR CTY 7WNW   N/A     53  42  68 SE8       30.09R
GAIL 2ESE        N/A     52  46  80 SE3       30.10R
LAMESA 2SE       N/A     50  42  73 E6        30.11R
LEVELLAND 4S     N/A     49  41  72 SE5       30.11R
LUBBOCK 3WNW     N/A     54  44  68 SE6       30.11R
MORTON 1ENE      N/A     50  41  72 E6        30.08S
ODONNELL 1N      N/A     50  42  73 SE5       30.11R
PLAINS 3N        N/A     53  42  66 SE9       30.08S
RALLS 1SE        N/A     49  42  79 S6        30.12R
REESE CENTER     N/A     49  42  74 SE7       30.11S
SEAGRAVES 1SW    N/A     48  42  78 E3        30.11R
SEMINOLE 2NNE    N/A     51  42  71 NE3       30.10R
SLATON 2NE       N/A     48  43  83 SE6       30.11R
SNYDER 3E        N/A     54  49  84 SE9       30.10S
SUNDOWN 8SW      N/A     51  41  69 SE9       30.09S
TAHOKA 3NNE      N/A     46  40  80 SE6       30.10S
WOLFFORTH 6SSW   N/A     50  42  72 SE5       30.12R
$$

TXZ031-032-036>038-042>044-191300-
TEXAS TECH WEST TEXAS MESONET/ROLLING PLAINS

CITY           SKY/WX    TMP DP  RH WIND       PRES   REMARKS
ASPERMONT 3NE    N/A     56  49  78 SE9       30.10R
FLUVANNA 3WNW    N/A     53  47  80 SE12      30.10R
GRAHAM 5SSW      N/A     53  46  78 SE8       30.11R
GUTHRIE 10WSW    N/A     49  46  88 S5        30.10R
HASKELL 1NW      N/A     53  47  81 S5        30.11R
JAYTON 1SSE      N/A     51  47  86 SE6       30.10S
KNOX CITY 3NW    N/A     51  46  82 S3        30.11R
LK A HENRY 1NW   N/A     54  49  83 S5        30.10R
NORTHFIELD 1S    N/A     49  46  88 S2        30.11R
ODELL 4ENE       N/A     55  50  85 SE10      30.12R
PADUCAH 10SW     N/A     47  45  90 S7        30.11R
POST 1NE         N/A     51  45  79 CALM      30.10S
RRING SPRGS 3N   N/A     49  46  89 S9        30.10R
SEYMOUR 3NW      N/A     55  49  80 S7        30.11R
SPUR 1W          N/A     42  37  82 W1        30.10R
WEINERT 2NNE     N/A     50  46  87 S7        30.11R
WHITE RVR 6NE    N/A     51  44  76 SE6       30.10S
$$

TXZ052-054-060>062-072-078-127-140-154-169-191300-
TEXAS TECH WEST TEXAS MESONET/PERMIAN BASIN/
CONCHO VALLEY/BIG COUNTRY/EDWARDS PLATEAU

CITY           SKY/WX    TMP DP  RH WIND       PRES   REMARKS
COYANOSA 2N      N/A     62  51  66 E13       30.03S
JUNCTION 1SSW    N/A     57  53  86 S3        30.13R
MERTZON 3NNE     N/A     57  51  80 SE5       30.12R
SAN ANGELO 7NW   N/A     56  49  78 E5        30.11R
STRLNG CT 4WSW   N/A     55  49  80 SE6       30.10S
ST LAWRNCE 5SW   N/A     56  48  73 SE14      30.08R
SWEETWATR 11SW   N/A     55  50  84 SE12      30.12R
WALL 1E          N/A     58  51  76 SE12      30.11S
$$

TXZ055-058-074-075-080-082-191300-
TEXAS TECH WEST TEXAS MESONET/FAR WEST/SOUTHWEST MOUNTAINS/TRANS PECOS

CITY           SKY/WX    TMP DP  RH WIND       PRES   REMARKS
PRSMN GAP BBNP   N/A     62  51  67 NE9       30.04R
$$